Iridium Next SV173

operational
NORAD ID: 43925 Int'l Des: 2019-002 Owner: IRIDS Country: US Constellation: Iridium NEXT
LEOCIRCULARPOLAR

About Iridium Next SV173

Description loading...

Live Position

Loading 3D Globe...

Upcoming Passes

Altitude History

Altitude vs Time

uPlot chart will show altitude changes over time

Two-Line Element Set

1 43925U 19002D 25304.83433889 .00000229 00000-0 74731-4 0 9994
2 43925 86.3930 89.0310 0002165 87.7931 272.3513 14.34218362356229
Epoch: Oct 31, 2025 • Age: 22 hours

Current Status

Altitude 788.4 km
Velocity 7.47 km/s
Sub-Earth Point 70.33°N, 145.68°E
Launch Date Jan 11, 2019
Age 6.8 years
Type communications

Technical Details

Classification Payload
Mass 860.00 kg
Dry Mass 700.00 kg
Total Mass 860.00 kg
Length 3.10 m
Diameter 1.50 m
Span 9.40 m
Shape Half Hex Prism+2 pan
Manufacturer NGISGA
Bus Type EliteBus
Phase Status In Orbit
Owner/State IRIDS/US

Large Constellations

Loading constellations...